GAOFEN-9 01

Last updated on Mon Jun 22 2026 00:02:51 GMT+0000 (Coordinated Universal Time)

1 40894U 15047A 26172.51610501 .00000659 00000+0 87040-4 0 9991 2 40894 97.6278 208.0143 0028657 124.2083 236.1854 14.82890423580836
UTC large
Height (km)
Speed (km/s)
/
Latitude / Longitude
Inclination (degrees)
Orbital Period (minutes)
Azimuth
Elevation
Range (km)
Doppler Factor

Next 0 passes for location: London (51.5072 / 0.1276)

No passes found over London.
GAOFEN-9 01